This demonstration page uses our WeatherBlox Daily Observations layout. Learn more.

Left ArrowRight Arrow

39.92423, -83.80882

Hourly Observations for May 30, 2018

Temp ( °F °C ) Dew Point ( °F °C ) Humidity (%) Winds ( mph kmh ) Pressure ( in mb ) Visibility ( mi km ) Precip ( " mm )
12:56 am 00:56 Clear 77 25 69 20.6 77 77 SE 13 20 29.84 1011 10 16.0934 0 0
1:56 am 01:56 Clear 76 24.4 69 20.6 79 79 ESE 13 20 29.83 1010 10 16.0934 0 0
2:56 am 02:56 Clear 75 23.9 68 20 79 79 ESE 12 19 29.83 1010 10 16.0934 0 0
3:56 am 03:56 Partly Cloudy 75 23.9 68 20 79 79 ESE 10 17 29.82 1010 10 16.0934 0 0.0254
4:56 am 04:56 Mostly Clear 74 23.3 67 19.4 79 79 SE 12 19 29.82 1010 10 16.0934 0 0
5:56 am 05:56 Clear 73 22.8 67 19.4 81 81 SE 12 19 29.81 1010 10 16.0934 0 0
6:56 am 06:56 Partly Cloudy 73 22.8 67 19.4 81 81 SE 13 20 29.82 1010 10 16.0934 0 0
7:56 am 07:56 Sunny 75 23.9 67 19.4 76 76 SSE 14 22 29.82 1010 10 16.0934 0 0
8:56 am 08:56 Cloudy 75 23.9 67 19.4 76 76 SSE 15 24 29.83 1010 10 16.0934 0 0
9:56 am 09:56 Sunny 79 26.1 68 20 69 69 SSE 14 22 29.82 1010 10 16.0934 0 0
10:56 am 10:56 Mostly Cloudy 81 27.2 67 19.4 62 62 S 6 9 29.8 1009 10 16.0934 0.09 2.286
11:11 am 11:11 Mostly Cloudy with Haze 82 28 68 20 62 62 S 16 26 29.77 1008 0.5 0.80467 0 0
11:19 am 11:19 Mostly Cloudy with Haze 82 28 68 20 62 62 S 16 26 29.77 1008 0.25 0.402335 0 0
11:21 am 11:21 Hazy 82 28 66 19 58 58 SSE 20 31 29.77 1008 0.75 1.207005 0 0
11:23 am 11:23 Partly Cloudy 82 28 66 19 58 58 S 17 28 29.77 1008 9 14.48406 0 0
11:56 am 11:56 Cloudy 82 27.8 68 20 63 63 S 12 19 29.79 1009 N/A 0 0
12:56 pm 12:56 Mostly Cloudy 84 28.9 67 19.4 57 57 S 18 30 29.77 1008 N/A 0 0
1:56 pm 13:56 Mostly Cloudy 85 29.4 68 20 57 57 SSE 18 30 29.75 1007 10 16.0934 0 0
2:56 pm 14:56 Cloudy with Light Rain 83 28.3 69 20.6 63 63 SSE 14 22 29.73 1007 10 16.0934 0 0.0254
3:56 pm 15:56 Mostly Cloudy with Light Rain 78 25.6 71 21.7 79 79 SSE 12 19 29.72 1007 10 16.0934 0 0.0254
4:15 pm 16:15 Mostly Cloudy with Thunderstorms 79 26 70 21 74 74 SSE 33 54 29.68 1005 3 4.82802 0.04 1.016
4:19 pm 16:19 Mostly Cloudy with Heavy Thunderstorms 73 23 70 21 89 89 SSE 22 35 29.71 1006 1.75 2.816345 0.13 3.302
4:23 pm 16:23 Mostly Cloudy with Heavy Thunderstorms 72 22 70 21 94 94 S 17 28 29.74 1007 1.25 2.011675 0.21 5.334
4:27 pm 16:27 Cloudy with Heavy Rain 72 22 70 21 94 94 S 14 22 29.74 1007 2 3.21868 0.24 6.096
4:36 pm 16:36 Cloudy with Light Rain 72 22 70 21 94 94 SSE 13 20 29.74 1007 10 16.0934 0.25 6.35
4:56 pm 16:56 Partly Cloudy 72 22.2 69 20.6 91 91 S 9 15 29.73 1007 10 16.0934 0.25 6.35
5:56 pm 17:56 Sunny 75 23.9 72 22.2 90 90 SSE 10 17 29.71 1006 10 16.0934 0 0
6:45 pm 18:45 Mostly Cloudy 79 26 73 23 84 84 SSE 13 20 29.65 1004 10 16.0934 0 0
6:56 pm 18:56 Mostly Cloudy 78 25.6 72 22.2 82 82 S 15 24 29.7 1006 10 16.0934 0 0
7:19 pm 19:19 Mostly Cloudy 79 26 72 22 79 79 S 12 19 29.65 1004 10 16.0934 0 0
7:39 pm 19:39 Mostly Cloudy 79 26 72 22 79 79 S 12 19 29.65 1004 10 16.0934 0 0
7:48 pm 19:48 Partly Cloudy 79 26 72 22 79 79 S 14 22 29.65 1004 10 16.0934 0 0
7:56 pm 19:56 Partly Cloudy 78 25.6 71 21.7 79 79 S 13 20 29.7 1006 10 16.0934 0 0
8:56 pm 20:56 Cloudy 76 24.4 71 21.7 85 85 S 16 26 29.71 1006 10 16.0934 0 0
9:41 pm 21:41 Cloudy with Nearby Thunderstorms 75 24 72 22 89 89 SSE 13 20 29.68 1005 10 16.0934 0 0
9:49 pm 21:49 Cloudy with Heavy Rain 73 23 72 22 94 94 WSW 14 22 29.71 1006 4 6.43736 0.19 4.826
9:51 pm 21:51 Cloudy with Heavy Rain 73 23 72 22 94 94 WSW 14 22 29.71 1006 3 4.82802 0.24 6.096
9:56 pm 21:56 Cloudy with Thunderstorms 71 21.7 70 21.1 96 96 SSW 17 28 29.75 1008 4 6.43736 0.25 6.35
9:58 pm 21:58 Cloudy with Thunderstorms 72 22 70 21 94 94 SSW 13 20 29.74 1007 5 8.0467 0 0.0254
10:11 pm 22:11 Cloudy with Light Thunderstorms 72 22 70 21 94 94 S 9 15 29.74 1007 10 16.0934 0.02 0.508
10:26 pm 22:26 Cloudy with Rain 70 21 70 21 100 100 S 12 19 29.74 1007 9 14.48406 0.05 1.27
10:56 pm 22:56 Cloudy with Rain 70 21.1 68 20 93 93 S 10 17 29.76 1008 10 16.0934 0.1 2.54
11:10 pm 23:10 Cloudy with Heavy Rain 70 21 68 20 94 94 S 13 20 29.74 1007 6 9.65604 0.07 1.778
11:42 pm 23:42 Cloudy with Nearby Thunderstorms 70 21 68 20 94 94 S 12 19 29.77 1008 10 16.0934 0.11 2.794
11:56 pm 23:56 Cloudy with Rain 70 21.1 69 20.6 97 97 S 7 11 29.77 1008 10 16.0934 0.14 3.556

Powered by AerisWeather